YZ-1 R/B, 40751

Orbit data source: Space-Track

YZ-1 R/B, 40751 is space debris originally from a launch on Sat, 25 Jul 2015 UTC launched from the Xichang Space Center, China (XSC). Debris objects in space refer to the collection of defunct objects orbiting the Earth. Examples of debris include non-operational satellites, rocket bodies, and fragments generated from explosions, collisions, or faulty payload assembly.

Loading next visibility...
Identifier
40751, 2015-037D
Orbit
Active
Country
Flag of CNCN / PRC
Related business
Manufacturer
CALT
Mission
Spacecraft
Bus & Motor
YZ-1, Unknown motor
Mass
~2,075 kg wet, ~2,075 kg dry
Launch date (UTC)
2015-07-25 (10 years ago)
Launch vehicle
Unknown
Launch site
Xichang Space Center, China (XSC)
Object type
Payload
Rocket body
Debris
Shape & HBR
Double Cone, 2.0 m
Radar Cross Section
5.890 m², Large (>1 m²)

Expand to show TLE details & history
Last TLE update: 2 days ago

TLE from 2 days ago
0 YZ-1 R/B
1 40751U 15037D   25309.25496797 -.00000079  00000-0  00000-0 0  9998
2 40751  56.4728 347.8827 1020562  73.4314 297.6017  1.56590878 58822
Epoch: 2025-11-05T06:07Z
TLE epoch observation values (Epoch: 2025-11-05T06:07:09.232Z)
Latitude
0.00002°
Longitude
-148.61233°
Altitude
23,733.657 km
Speed
3.708 km/s
True Right ascension
23h 11m 37s
True Declination
0° 00' 00"
Sunlit
Object was in daylight at epoch
Visualization orbit readout
Latitude
Unknown
Longitude
Unknown
Altitude
Unknown
Speed
Unknown
Apparent Right ascension
Unknown
Apparent Declination
Unknown
Sunlit
N/A
Visualization observer readout
Local Sidereal Time
15:13:33
Azimuth
Unknown
Elevation
Unknown
Doppler factor
Unknown
Orbital elements
Apogee altitude
28,143.711 km
Perigee altitude
21,749.902 km
Semi-major axis
31,324.943 km
Eccentricity
0.10206
Inclination
56.4728°
RAAN
347.8827°
Arg. of periapsis
73.4314°
True anomaly
286.65605°
Mean anomaly
297.6017°
Eccentric anomaly
292.18728°
Mean motion
0.39148 °/min
Orbital period
919.59 mins
BSTAR
0
Loading maneuver chart data...
Computing Atmospheric mass density...
Loading historical data...
Loading historical data...
Loading historical data...
Loading historical data...
Loading historical data...
Loading historical data...
Loading historical data...
Other satellites on launch #37 in the year 2015 (2015-07-25 UTC)

Documentation

Showing up to 5 results
|